Weather History for Del Bajio, Mexico

Change the Weather History Date:

Monday, September 9, 2013

  Actual Average Record
Temperature  
Mean Temperature 70 °F -  
Max Temperature 80 °F 79 °F 84 °F (2000)
Min Temperature 59 °F 58 °F 44 °F (2011)
Cooling Degree Days 4    
Growing Degree Days 20 (Base 50)    
Moisture  
Dew Point 59 °F    
Average Humidity 81    
Maximum Humidity 94    
Minimum Humidity 42    
Precipitation  
Precipitation 0.00 in - - ()
Sea Level Pressure  
Sea Level Pressure 30.03 in    
Wind  
Wind Speed 3 mph ()    
Max Wind Speed 12 mph    
Max Gust Speed -    
Visibility 8.1 miles    
Events Rain , Thunderstorm    
Averages and records for this station are not official NWS values.
T = Trace of Precipitation, MM = Missing Value Source: Averaged Metar Reports

Daily Weather History Graph

Daily Weather History Graph

Search for Another Location

Airport:

Trip Planner

Search our weather history database for the weather conditions in past years. The results will help you decide how hot, cold, wet, or windy it might be!

Date:

Astronomy

Sep. 09, 2013 Rise Set
Actual Time 7:31 AM CDT 7:54 PM CDT
Civil Twilight 7:09 AM CDT 8:16 PM CDT
Nautical Twilight 6:43 AM CDT 8:42 PM CDT
Astronomical Twilight 6:17 AM CDT 9:08 PM CDT
Moon 11:16 AM CDT (9/9) 10:53 PM CDT (9/9)
Length of Visible Light 13h 07m
Length of Day
12h 22m
Waxing Crescent, 19% of the Moon is Illuminated
Sep 9
Waxing Crescent
Sep 12
First Quarter
Sep 19
Full
Sep 26
Last Quarter
Oct 4
New

Hourly Weather History & Observations

Time (CDT) Temp. Heat Index Dew Point Humidity Pressure Visibility Wind Dir Wind Speed Gust Speed Precip Events Conditions
12:45 AM 62.6 °F - 60.8 °F 94% 29.81 in 3.0 mi WSW 6.9 mph - N/A Rain Rain
1:50 AM 60.8 °F - 59.0 °F 94% 30.18 in 2.0 mi SSE 6.9 mph - N/A Rain , Thunderstorm Thunderstorms and Rain
2:45 AM 60.8 °F - 59.0 °F 94% 30.18 in 3.0 mi ENE 6.9 mph - N/A Rain Rain
3:48 AM 59.0 °F - 57.2 °F 94% 29.80 in 4.0 mi NE 6.9 mph - N/A Rain Rain
4:45 AM 59.0 °F - 57.2 °F 94% 30.15 in 8.0 mi Calm Calm - N/A   Overcast
5:50 AM 59.0 °F - 57.2 °F 94% 30.13 in 8.0 mi Calm Calm - N/A   Overcast
6:50 AM 59.0 °F - 57.2 °F 94% 29.78 in 8.0 mi Calm Calm - N/A   Mostly Cloudy
7:42 AM 60.8 °F - 57.2 °F 88% 30.12 in 10.0 mi Calm Calm - N/A   Overcast
8:46 AM 60.8 °F - 59.0 °F 94% 30.15 in 10.0 mi Calm Calm - N/A   Overcast
9:52 AM 64.4 °F - 60.8 °F 88% 29.85 in 10.0 mi Calm Calm - N/A   Overcast
10:43 AM 64.4 °F - 60.8 °F 88% 30.21 in 9.0 mi Calm Calm - N/A   Overcast
11:45 AM 69.8 °F - 60.8 °F 73% 30.21 in 9.0 mi Calm Calm - N/A   Overcast
12:46 PM 71.6 °F - 59.0 °F 64% 29.81 in 9.0 mi Calm Calm - N/A   Overcast
1:46 PM 78.8 °F - 57.2 °F 47% 30.18 in 9.0 mi Calm Calm - N/A   Overcast
2:46 PM 78.8 °F - 59.0 °F 51% 30.12 in 10.0 mi WNW 3.5 mph - N/A   Mostly Cloudy
3:48 PM 64.4 °F - 57.2 °F 77% 29.75 in 10.0 mi NNW 3.5 mph - N/A   Mostly Cloudy
4:48 PM 64.4 °F - 57.2 °F 77% 30.09 in 10.0 mi Calm Calm - N/A   Mostly Cloudy
5:43 PM 80.6 °F 80.5 °F 55.4 °F 42% 30.09 in 10.0 mi SW 4.6 mph - N/A   Mostly Cloudy
6:53 PM 69.8 °F - 57.2 °F 64% 29.75 in 10.0 mi SSW 11.5 mph - N/A   Mostly Cloudy
7:45 PM 66.2 °F - 60.8 °F 83% 30.09 in 10.0 mi WSW 6.9 mph - N/A   Overcast
8:46 PM 64.4 °F - 60.8 °F 88% 30.15 in 8.0 mi Calm Calm - N/A   Overcast
9:43 PM 62.6 °F - 60.8 °F 94% 29.83 in 8.0 mi NNE 3.5 mph - N/A   Mostly Cloudy
10:45 PM 64.4 °F - 60.8 °F 88% 30.18 in 8.0 mi Calm Calm - N/A   Overcast
11:43 PM 62.6 °F - 59.0 °F 88% 30.18 in 8.0 mi Calm Calm - N/A   Overcast